INSAT-3DR (41752 NORAD) Tracking and Keplerian Element Data

This shows tracking and keplerian element data for the satellite.

Feedback or suggestion? Click here.




ElementValue
Catalog41752
NameINSAT-3DR
Epoch Orbit2840
Epoch Day159.93104995
Epoch Year2024
RAAN96.777
Inclination0.0817
Eccentricity0.0010516
Argument of Perigee173.465
Mean Anonmoly35.7215
Mean Motion1.00271426
Decay Rate-7.7E-07
L11 41752U 16054A 24159.93104995 -.00000077 00000+0 00000+0 0 9999
L22 41752 0.0817 96.7770 0010516 173.4650 35.7215 1.00271426 28402



Live tracking and technical data element details for INSAT-3DR (NORAD 41752). INSAT-3DR can be tracked NOW for your location showing map with azimuth and elevation plus other details from your city location.







IsCatalogInMostPopularTable: catalog: 41752, numindb: 598
Update: records affected: 1



GetName: 41752 INSAT-3DR

Hit Count: updated at: Tue, 18 Jun 2024 00:02:38 GMT